Location: Chateh
(58.6667°N, 118.6000°W)
Time: 08:39:05
(UTC+00:00)

O/OREOS (USA 219) - Pass Details

Date: 07 December 2023
Orbit: 621 x 646 km, 72.0° (Epoch: 22 May)

Event Time Altitude Azimuth Distance (km) Brightness Sun altitude
Exits shadow 13:39:45 16° 349° (N) 1,638 ? -19.9°
Maximum altitude 13:41:51 22° 26° (NNE) 1,386 ? -19.7°
Drops below altitude 10° 13:45:23 10° 77° (ENE) 2,012 ? -19.2°
Sets 13:48:06 0° 93° (E) 2,921 ? -18.9°
